Regional Weather Roundup
Issued by NWS

Home | Current Version | Previous Version | Graphics & Text | Print | Product List | Glossary On
Versions: 1 2 3 4 5 6 7 8 9 10 11 12 13 14 15 16 17 18 19 20 21 22 23 24 25 26 27 28
000
ASUS45 KBOU 151206
RWRCO

WEATHER ROUNDUP FOR COLORADO
NATIONAL WEATHER SERVICE DENVER/BOULDER CO
600 AM MDT TUE APR 15 2014

NOTE: "FAIR" INDICATES FEW OR NO CLOUDS BELOW 12000 FEET WITH NO
SIGNIFICANT WEATHER AND/OR OBSTRUCTIONS TO VISIBILITY.

COZ001>005-013-030-031-151300-
...NORTHWEST COLORADO...

CITY           SKY/WX    TMP DP  RH WIND       PRES   REMARKS
CRAIG          CLEAR     20  15  81 CALM      30.16F
HAYDEN         CLEAR     21  16  79 SE9       30.17S WCI  11
MEEKER         PTCLDY    24  18  77 CALM      30.18F
MOUNT WERNER   NOT AVBL
STEAMBOAT SPGS CLEAR     18  14  84 CALM      30.16F
WALDEN         PTCLDY    18  10  73 E7        30.11S WCI   8
$$

COZ006>008-011-151300-
...WEST CENTRAL VALLEYS...

CITY           SKY/WX    TMP DP  RH WIND       PRES   REMARKS
GRAND JUNCTION CLEAR     31  21  66 E13       30.20F WCI  21
MONTROSE       PTCLDY    27  20  75 S5        30.23F WCI  22
EAGLE          PTCLDY    21  19  93 SE5       30.24S WCI  15
RIFLE          PTCLDY    25  20  81 CALM      30.22F
DELTA          PTCLDY    29  22  75 NE3       30.23F
NUCLA            N/A     30  19  64 CALM      30.25R
$$

COZ017>023-064>068-151300-
...SOUTHWEST COLORADO...

CITY           SKY/WX    TMP DP  RH WIND       PRES   REMARKS
DURANGO        CLEAR     20   5  52 CALM      30.19F
CORTEZ         CLEAR     18  13  80 CALM      30.19F
PAGOSA SPRINGS CLEAR     22   8  52 CALM      30.20S
TELLURIDE      CLEAR     21   9  58 SE8       30.20F WCI  12
WOLF CREEK PAS NOT AVBL
$$

COZ009-010-012-014-032>034-037-058>063-151300-
...CENTRAL COLORADO...

CITY           SKY/WX    TMP DP  RH WIND       PRES   REMARKS
ASPEN          CLEAR     19  11  70 CALM      30.19F
BUENA VISTA    CLEAR     21  11  64 E3        30.16S
COPPER MTN     CLEAR     19   9  63 W13G24    30.15F WCI   7
BERTHOUD PASS  FAIR       9   0  66 NW39G47   30.06R WCI -17
COTTONWOOD PAS CLEAR     28   5  37 NW8       30.14F WCI  20
GUNNISON       PTCLDY    18  10  73 CALM      30.26F
KREMMLING      CLEAR     14  10  85 SE6       30.21S WCI   5
LEADVILLE      CLEAR     14   3  61 CALM      30.16F
MONARCH PASS   PTCLDY    12   5  73 W32       30.25S WCI -10
SALIDA         CLEAR     31   7  36 NW7       30.22F WCI  24
SUNLIGHT       PTCLDY    19  14  79 SW3       30.20F
WILKERSON PASS PTCLDY    19   5  53 W14G20    30.12S WCI   6
$$

COZ069>075-151300-
...SAN LUIS VALLEY/SANGRE DE CRISTO MOUNTAINS...

CITY           SKY/WX    TMP DP  RH WIND       PRES   REMARKS
ALAMOSA        CLEAR     20  15  81 SW6       30.18F WCI  12
LA VETA PASS   CLEAR     21   3  45 SW12G22   30.12R WCI   9
SAGUACHE       PTCLDY    25   1  36 NW14      30.19S WCI  13
$$

COZ035-036-038>040-151300-
...NORTHERN COLORADO FRONT RANGE...

CITY           SKY/WX    TMP DP  RH WIND       PRES   REMARKS
DENVER INTL AP PTCLDY    34  17  50 SW15      30.00F WCI  24
DMNS CITY PARK   N/A     36  15  41 S9        30.00F
AURORA         PTCLDY    32  18  55 S14       30.01F WCI  22
FRONT RANGE AP NOT AVBL
ERIE MUNI ARPT PTCLDY    34  20  55 CALM      29.98F
BOULDER MUN AP PTCLDY    43  14  31 W10       29.97F
CENTENNIAL     PTCLDY    34  15  46 S9        30.02S WCI  27
BROOMFIELD     PTCLDY    39  16  38 CALM      30.00S
FORT COLLINS   PTCLDY    25  19  80 N3        30.00S
LONGMONT       PTCLDY    27  22  82 CALM      30.00F
$$

COZ041-046-047-076>085-087-088-151300-
...PIKES PEAK/PALMER DIVIDE AND SOUTHERN FOOTHILLS...

CITY           SKY/WX    TMP DP  RH WIND       PRES   REMARKS
COLO. SPRINGS  PTCLDY    23  18  81 N5        30.06F WCI  17
A. F. ACADEMY  CLEAR     19  15  84 N3        30.06F
ELLICOTT       NOT AVBL
FALCON         CLEAR     28  15  58 W9        30.06F WCI  19
FORT CARSON    CLEAR     24  21  89 NW9       30.05F WCI  14
LIMON          CLEAR     20  18  92 N7        30.04F WCI  11
MONUMENT HILL  CLEAR     28  14  54 SW10      30.04F WCI  19
TRINIDAD       CLEAR     27  21  78 W12       30.10F WCI  17
$$

COZ042>045-048>051-090-091-151300-
...NORTHEAST COLORADO...

CITY           SKY/WX    TMP DP  RH WIND       PRES   REMARKS
GREELEY ARPT   CLEAR     21  14  73 CALM      30.00S
AKRON          CLEAR     29  21  72 SW17      29.98F WCI  17
BURLINGTON     CLEAR     28  14  55 SW14      30.05F WCI  17
WRAY           CLEAR     28  24  84 W7        30.03S WCI  20
STERLING       CLEAR     28  25  86 S6        30.00F WCI  22
HOLYOKE        CLEAR     27  21  80 SW3       30.01F
FORT MORGAN    CLEAR     24  21  89 SW6       30.00F WCI  17
$$

COZ086-089-092>099-151300-
...SOUTHEAST COLORADO...

CITY           SKY/WX    TMP DP  RH WIND       PRES   REMARKS
PUEBLO         CLEAR     27  24  89 W6        30.09F WCI  20
LA JUNTA       CLEAR     28  24  85 SW6       30.11F WCI  22
LAMAR          CLEAR     20  16  84 CALM      30.10F
SPRINGFIELD      N/A     26  20  77 SW10      30.12F WCI  16
$$



USA.gov is the U.S. government's official web portal to all federal, state and local government web resources and services.